Houghton, MI

8:08 AM EDT on April 21, 2018 (GMT -0400)
Houghton County Memorial

Weather History for KCMX - March, 2013

Change the Weather History Date:

Wednesday, March 13, 2013

  Actual Average Record
Temperature  
Mean Temperature 20 °F -  
Max Temperature 25 °F 30 °F 57 °F (2007)
Min Temperature 15 °F 17 °F -7 °F (2014)
Degree Days  
Heating Degree Days 46    
Moisture  
Dew Point 10 °F    
Average Humidity 65    
Maximum Humidity 75    
Minimum Humidity 57    
Precipitation  
Precipitation 0.00 in - - ()
Sea Level Pressure  
Sea Level Pressure 30.17 in    
Wind  
Wind Speed 14 mph (NW)    
Max Wind Speed 18 mph    
Max Gust Speed 25 mph    
Visibility 10 miles    
Events      
Averages and records for this station are not official NWS values.
T = Trace of Precipitation, MM = Missing Value Source: NWS Daily Summary

Daily Weather History Graph

Daily Weather History Graph

Search for Another Location

Airport or City:

Astronomy

Mar. 13, 2013 Rise Set
Actual Time 8:10 AM EDT 7:57 PM EDT
Civil Twilight 7:39 AM EDT 8:27 PM EDT
Nautical Twilight 7:04 AM EDT 9:03 PM EDT
Astronomical Twilight 6:28 AM EDT 9:39 PM EDT
Moon 8:39 AM EDT (3/13) 10:26 PM EDT (3/13)
Length of Visible Light 12h 47m
Length of Day
11h 46m
Waxing Crescent, 4% of the Moon is Illuminated
Mar 13
Waxing Crescent
Mar 19
First Quarter
Mar 27
Full
Apr 3
Last Quarter
Apr 10
New

Hourly Weather History & Observations

Time (EDT) Temp. Windchill Dew Point Humidity Pressure Visibility Wind Dir Wind Speed Gust Speed Precip Events Conditions
12:53 AM 19.0 °F 4.5 °F 7.0 °F 59% 30.01 in 10.0 mi North 16.1 mph - 0.00 in   Overcast
1:53 AM 18.0 °F 5.4 °F 6.1 °F 60% 30.02 in 10.0 mi North 11.5 mph 20.7 mph N/A   Overcast
2:53 AM 17.6 °F 3.7 °F 6.8 °F 63% 29.97 in 10.0 mi North 13.8 mph 23.0 mph N/A   Overcast
3:53 AM 17.1 °F 3.6 °F 6.1 °F 62% 30.05 in 10.0 mi North 12.7 mph - N/A   Mostly Cloudy
4:53 AM 16.0 °F 0.6 °F 6.1 °F 65% 30.06 in 10.0 mi North 16.1 mph 23.0 mph N/A   Mostly Cloudy
5:53 AM 15.1 °F 1.1 °F 6.1 °F 68% 30.08 in 10.0 mi NNW 12.7 mph - N/A   Clear
6:53 AM 16.0 °F 1.1 °F 6.1 °F 65% 30.10 in 10.0 mi North 15.0 mph - N/A   Clear
7:53 AM 16.0 °F 2.3 °F 6.1 °F 65% 30.12 in 10.0 mi NNW 12.7 mph - N/A   Clear
8:53 AM 16.0 °F 0.6 °F 6.1 °F 65% 30.15 in 10.0 mi NNW 16.1 mph - N/A   Scattered Clouds
9:53 AM 17.1 °F 1.0 °F 7.0 °F 65% 30.17 in 10.0 mi NNW 18.4 mph 25.3 mph N/A   Scattered Clouds
10:53 AM 19.0 °F 3.6 °F 7.0 °F 59% 30.21 in 10.0 mi NNW 18.4 mph 24.2 mph N/A   Clear
11:53 AM 19.9 °F 6.2 °F 7.0 °F 57% 30.22 in 10.0 mi NNW 15.0 mph - N/A   Clear
12:53 PM 19.9 °F 6.2 °F 8.1 °F 60% 30.24 in 10.0 mi NNW 15.0 mph - N/A   Clear
1:53 PM 21.0 °F 7.6 °F 10.0 °F 63% 30.23 in 10.0 mi NW 15.0 mph - N/A   Clear
2:53 PM 21.0 °F 6.6 °F 12.0 °F 68% 30.23 in 10.0 mi WNW 17.3 mph - N/A   Clear
3:53 PM 21.9 °F 7.3 °F 12.9 °F 68% 30.23 in 10.0 mi WNW 18.4 mph 25.3 mph N/A   Partly Cloudy
4:53 PM 23.0 °F 9.2 °F 12.9 °F 65% 30.24 in 10.0 mi WNW 17.3 mph 25.3 mph N/A   Partly Cloudy
5:53 PM 24.1 °F 10.6 °F 12.9 °F 62% 30.24 in 8.0 mi WNW 17.3 mph - N/A   Clear
6:53 PM 24.1 °F 11.0 °F 14.0 °F 65% 30.24 in 10.0 mi WNW 16.1 mph - N/A   Clear
7:53 PM 21.9 °F 11.0 °F 14.0 °F 72% 30.25 in 10.0 mi West 10.4 mph - N/A   Clear
8:53 PM 19.0 °F 10.0 °F 12.0 °F 74% 30.24 in 10.0 mi West 6.9 mph - N/A   Clear
9:53 PM 21.9 °F 12.5 °F 15.1 °F 75% 30.23 in 10.0 mi WNW 8.1 mph - N/A   Mostly Cloudy
10:53 PM 24.1 °F 14.4 °F 17.1 °F 75% 30.23 in 10.0 mi WNW 9.2 mph - N/A   Overcast
11:53 PM 24.1 °F 17.0 °F 16.0 °F 71% 30.23 in 10.0 mi NW 5.8 mph - N/A   Mostly Cloudy